Location: Davidschlag
(48.4333°N, 14.2833°E)
Time: 16:55:19
(UTC+00:00)

Nadezhda 4 Rocket - Pass Details

Date: 27 February 2020
Orbit: 950 x 991 km, 82.9° (Epoch: 06 April)

Event Time Altitude Azimuth Distance (km) Brightness Sun altitude
Rises 17:56:15 0° 353° (N) 3,699 7.2 -13.0°
Reaches altitude 10° 17:58:50 10° 357° (N) 2,752 6.4 -13.4°
Maximum altitude 18:05:04 59° 77° (ENE) 1,136 4.0 -14.4°
Drops below altitude 10° 18:11:18 10° 156° (SSE) 2,748 6.1 -15.4°
Sets 18:13:51 0° 160° (SSE) 3,693 6.8 -15.9°
